KAP1022 KBOS-KMVY

Flight info

Callsign KAP1022
Flight time N/A
Altitude 5000
Route LOGAN4 DUNKK
Aircraft C404/L-SDFR/C

Departure

Time 2026-05-08 01:03
Airport Boston Logan International Airport (KBOS)

Arrival

Time N/A
Airport Martha's Vineyard Airport (KMVY)
Time Latitude Longitude Altitude Speed Heading
2026-05-08 00:50 42.36529 -71.01585 21 ft 0 kts 155°
2026-05-08 00:53 42.36528 -71.01584 21 ft 2 kts 151°
2026-05-08 00:54 42.36509 -71.01571 23 ft 3 kts 193°
2026-05-08 00:54 42.36503 -71.01575 22 ft 0 kts 213°
2026-05-08 00:58 42.36499 -71.01578 21 ft 6 kts 211°
2026-05-08 00:59 42.36419 -71.01527 22 ft 5 kts 122°
2026-05-08 00:59 42.36375 -71.01412 21 ft 18 kts 113°
2026-05-08 00:59 42.36310 -71.01256 21 ft 20 kts 120°
2026-05-08 01:00 42.36243 -71.01091 21 ft 21 kts 114°
2026-05-08 01:00 42.36182 -71.00911 21 ft 19 kts 114°
2026-05-08 01:00 42.36151 -71.00821 22 ft 4 kts 114°
2026-05-08 01:00 42.36151 -71.00819 22 ft 0 kts 114°
2026-05-08 01:01 42.36151 -71.00818 22 ft 3 kts 114°
2026-05-08 01:01 42.36110 -71.00682 22 ft 24 kts 109°
2026-05-08 01:01 42.36054 -71.00463 21 ft 25 kts 108°
2026-05-08 01:01 42.36001 -71.00250 23 ft 23 kts 108°
2026-05-08 01:02 42.35933 -71.00054 21 ft 23 kts 133°
2026-05-08 01:02 42.35843 -70.99938 21 ft 9 kts 166°
2026-05-08 01:02 42.35812 -70.99963 21 ft 9 kts 257°
2026-05-08 01:02 42.35744 -71.00353 21 ft 75 kts 258°
2026-05-08 01:03 42.35567 -71.01225 208 ft 109 kts 251°
2026-05-08 01:03 42.34913 -71.01890 578 ft 135 kts 209°
2026-05-08 01:03 42.34026 -71.02398 997 ft 140 kts 206°
2026-05-08 01:03 42.33104 -71.02854 1624 ft 143 kts 206°
2026-05-08 01:04 42.32150 -71.03311 2072 ft 148 kts 206°
2026-05-08 01:04 42.31168 -71.03768 2500 ft 155 kts 205°
2026-05-08 01:04 42.30113 -71.04254 2816 ft 163 kts 205°
2026-05-08 01:04 42.29049 -71.04745 3038 ft 161 kts 205°
2026-05-08 01:05 42.27945 -71.05278 3009 ft 175 kts 205°
2026-05-08 01:05 42.26767 -71.05827 3010 ft 183 kts 204°
2026-05-08 01:05 42.25544 -71.06392 3035 ft 185 kts 204°
2026-05-08 01:05 42.24327 -71.06940 3087 ft 185 kts 204°
2026-05-08 01:06 42.23060 -71.07289 3103 ft 192 kts 182°
2026-05-08 01:06 42.21773 -71.06741 3281 ft 200 kts 150°
2026-05-08 01:06 42.20811 -71.05421 3418 ft 202 kts 122°
2026-05-08 01:06 42.20228 -71.03701 3620 ft 201 kts 111°
2026-05-08 01:07 42.19712 -71.01959 3915 ft 199 kts 112°
2026-05-08 01:07 42.19177 -71.00238 4209 ft 198 kts 112°
2026-05-08 01:07 42.18634 -70.98527 4491 ft 198 kts 112°
2026-05-08 01:07 42.18093 -70.96816 4781 ft 198 kts 112°
2026-05-08 01:08 42.17556 -70.95119 4982 ft 199 kts 112°
2026-05-08 01:08 42.17000 -70.93361 5017 ft 203 kts 113°
2026-05-08 01:08 42.16445 -70.91620 5007 ft 200 kts 113°
2026-05-08 01:08 42.15912 -70.89930 5000 ft 198 kts 113°
2026-05-08 01:09 42.15363 -70.88207 4997 ft 201 kts 113°
2026-05-08 01:09 42.14812 -70.86472 4997 ft 201 kts 113°
2026-05-08 01:09 42.14260 -70.84733 4997 ft 201 kts 113°
2026-05-08 01:09 42.13705 -70.82984 4999 ft 204 kts 113°
2026-05-08 01:10 42.13145 -70.81228 4996 ft 203 kts 113°
2026-05-08 01:10 42.12592 -70.79498 5002 ft 203 kts 113°
2026-05-08 01:10 42.12038 -70.77748 5002 ft 203 kts 113°
2026-05-08 01:10 42.11480 -70.75998 5001 ft 202 kts 113°
2026-05-08 01:11 42.10926 -70.74260 5004 ft 202 kts 113°
2026-05-08 01:11 42.10369 -70.72513 5004 ft 204 kts 113°
2026-05-08 01:11 42.09808 -70.70759 5003 ft 203 kts 113°
2026-05-08 01:11 42.09256 -70.69038 5009 ft 203 kts 113°
2026-05-08 01:12 42.08677 -70.67301 5005 ft 202 kts 120°
2026-05-08 01:12 42.07835 -70.66052 4995 ft 200 kts 147°
2026-05-08 01:12 42.06550 -70.65435 5000 ft 196 kts 178°
2026-05-08 01:12 42.05180 -70.65402 5007 ft 198 kts 183°
2026-05-08 01:13 42.03800 -70.65367 5003 ft 198 kts 181°
2026-05-08 01:13 42.02440 -70.65284 5003 ft 196 kts 180°
2026-05-08 01:13 42.01081 -70.65193 5006 ft 195 kts 180°
2026-05-08 01:13 41.99728 -70.65108 5004 ft 194 kts 180°
2026-05-08 01:14 41.98378 -70.65024 4998 ft 194 kts 180°
2026-05-08 01:14 41.97026 -70.64941 5006 ft 195 kts 180°
2026-05-08 01:14 41.95671 -70.64856 5003 ft 194 kts 180°
2026-05-08 01:14 41.94340 -70.64775 5002 ft 194 kts 180°
2026-05-08 01:15 41.92985 -70.64690 5005 ft 197 kts 180°
2026-05-08 01:15 41.91595 -70.64601 5005 ft 202 kts 180°
2026-05-08 01:15 41.90195 -70.64519 4999 ft 200 kts 180°
2026-05-08 01:15 41.88813 -70.64431 4998 ft 197 kts 180°
2026-05-08 01:16 41.87445 -70.64346 4996 ft 196 kts 180°
2026-05-08 01:16 41.86083 -70.64261 4997 ft 196 kts 180°
2026-05-08 01:16 41.84713 -70.64176 4993 ft 198 kts 180°
2026-05-08 01:16 41.83339 -70.64092 4992 ft 196 kts 180°
2026-05-08 01:17 41.81987 -70.64010 4992 ft 199 kts 180°
2026-05-08 01:17 41.80613 -70.63922 4992 ft 197 kts 180°
2026-05-08 01:17 41.79232 -70.63838 4997 ft 199 kts 180°
2026-05-08 01:17 41.77844 -70.63756 4987 ft 199 kts 180°
2026-05-08 01:18 41.76461 -70.63662 4996 ft 198 kts 180°
2026-05-08 01:18 41.75100 -70.63577 5008 ft 198 kts 180°
2026-05-08 01:18 41.73718 -70.63496 4998 ft 199 kts 180°
2026-05-08 01:18 41.72341 -70.63410 4999 ft 197 kts 180°
2026-05-08 01:19 41.70952 -70.63326 5008 ft 202 kts 180°
2026-05-08 01:19 41.69558 -70.63239 5001 ft 199 kts 180°
2026-05-08 01:19 41.68179 -70.63152 5002 ft 198 kts 180°
2026-05-08 01:19 41.66805 -70.63069 5001 ft 197 kts 180°
2026-05-08 01:20 41.65433 -70.62985 5000 ft 197 kts 180°
2026-05-08 01:20 41.64078 -70.62905 4996 ft 197 kts 180°
2026-05-08 01:20 41.62710 -70.62818 5010 ft 197 kts 180°
2026-05-08 01:20 41.61330 -70.62722 4888 ft 200 kts 180°
2026-05-08 01:21 41.59935 -70.62619 4722 ft 201 kts 179°
2026-05-08 01:21 41.58536 -70.62513 4455 ft 205 kts 179°
2026-05-08 01:21 41.57104 -70.62397 4176 ft 206 kts 179°
2026-05-08 01:21 41.55652 -70.62232 3888 ft 212 kts 170°
2026-05-08 01:22 41.54383 -70.61247 3566 ft 219 kts 136°
2026-05-08 01:22 41.54026 -70.60756 3476 ft 217 kts 133°